Location: Bothwell
(42.3833°S, 147.0000°E)
Time: 03:41:45
(UTC+11:00)

ITUPSAT 1 - Pass Details

Date: 29 September 2022
Orbit: 700 x 710 km, 98.5° (Epoch: 29 November)

Event Time Altitude Azimuth Distance (km) Brightness Sun altitude
Exits shadow 18:42:07 - 63° (ENE) 2,602 ? -5.6°
Reaches altitude 10° 18:43:26 10° 73° (ENE) 2,197 ? -5.9°
Maximum altitude 18:46:48 19° 117° (ESE) 1,663 ? -6.5°
Drops below altitude 10° 18:50:13 10° 162° (SSE) 2,220 ? -7.1°
Sets 18:53:03 0° 178° (S) 3,149 ? -7.6°
